Saint Bonnet de Bellac- Haute Vienne - France
Donnes mto: mercredi, 28/12/2011
Date Horaire Temp. E. Hum. E. P.atmo. Pluie Vent Direction Direction Ensoleilleme Solaire P. de rose Temp au vent Rafales
28/12/2011 00:00 -0,9 C 93 % 1030,4 hPa 0,0 mm 0,0 km/h (0 Bft) E-SE 112 0 min 0 W/m -1,9 C -0,9 C 0,0 km/h (0 Bft)
28/12/2011 00:05 -1,0 C 93 % 1030,6 hPa 0,0 mm 0,0 km/h (0 Bft) E 90 0 min 0 W/m -2,0 C -1,0 C 0,0 km/h (0 Bft)
28/12/2011 00:10 -1,1 C 93 % 1030,6 hPa 0,0 mm 0,0 km/h (0 Bft) E 90 0 min 0 W/m -2,1 C -1,1 C 0,0 km/h (0 Bft)
28/12/2011 00:15 -1,1 C 93 % 1030,7 hPa 0,0 mm 0,0 km/h (0 Bft) E 90 0 min 0 W/m -2,1 C -1,1 C 0,0 km/h (0 Bft)
28/12/2011 00:20 -1,1 C 93 % 1030,7 hPa 0,0 mm 0,0 km/h (0 Bft) E 90 0 min 0 W/m -2,1 C -1,1 C 0,0 km/h (0 Bft)
28/12/2011 00:25 -1,2 C 93 % 1030,8 hPa 0,0 mm 0,0 km/h (0 Bft) E 90 0 min 0 W/m -2,2 C -1,2 C 0,0 km/h (0 Bft)
28/12/2011 00:30 -1,3 C 93 % 1030,7 hPa 0,0 mm 0,0 km/h (0 Bft) E 90 0 min 0 W/m -2,3 C -1,3 C 0,0 km/h (0 Bft)
28/12/2011 00:35 -1,4 C 93 % 1030,7 hPa 0,0 mm 0,0 km/h (0 Bft) E 90 0 min 0 W/m -2,4 C -1,4 C 0,0 km/h (0 Bft)
28/12/2011 00:40 -1,4 C 93 % 1030,6 hPa 0,0 mm 0,0 km/h (0 Bft) E 90 0 min 0 W/m -2,4 C -1,4 C 0,0 km/h (0 Bft)
28/12/2011 00:45 -1,4 C 93 % 1030,7 hPa 0,0 mm 0,0 km/h (0 Bft) E 90 0 min 0 W/m -2,4 C -1,4 C 0,0 km/h (0 Bft)
28/12/2011 00:50 -1,5 C 93 % 1030,7 hPa 0,0 mm 0,0 km/h (0 Bft) E 90 0 min 0 W/m -2,5 C -1,5 C 0,0 km/h (0 Bft)
28/12/2011 00:55 -1,5 C 93 % 1030,7 hPa 0,0 mm 0,0 km/h (0 Bft) E 90 0 min 0 W/m -2,5 C -1,5 C 0,0 km/h (0 Bft)
28/12/2011 01:00 -1,6 C 93 % 1030,7 hPa 0,0 mm 0,0 km/h (0 Bft) E 90 0 min 0 W/m -2,6 C -1,6 C 0,0 km/h (0 Bft)
28/12/2011 01:05 -1,6 C 93 % 1030,7 hPa 0,0 mm 0,0 km/h (0 Bft) E-SE 112 0 min 0 W/m -2,6 C -1,6 C 0,0 km/h (0 Bft)
28/12/2011 01:10 -1,4 C 93 % 1030,6 hPa 0,0 mm 0,0 km/h (0 Bft) E-SE 112 0 min 0 W/m -2,4 C -1,4 C 0,0 km/h (0 Bft)
28/12/2011 01:15 -1,4 C 93 % 1030,6 hPa 0,0 mm 0,0 km/h (0 Bft) E-SE 112 0 min 0 W/m -2,4 C -1,4 C 0,0 km/h (0 Bft)
28/12/2011 01:20 -1,4 C 93 % 1030,6 hPa 0,0 mm 0,0 km/h (0 Bft) E-SE 112 0 min 0 W/m -2,4 C -1,4 C 0,0 km/h (0 Bft)
28/12/2011 01:25 -1,4 C 93 % 1030,5 hPa 0,0 mm 0,0 km/h (0 Bft) E-SE 112 0 min 0 W/m -2,4 C -1,4 C 0,0 km/h (0 Bft)
28/12/2011 01:30 -1,4 C 93 % 1030,5 hPa 0,0 mm 0,0 km/h (0 Bft) E-SE 112 0 min 0 W/m -2,4 C -1,4 C 0,0 km/h (0 Bft)
28/12/2011 01:35 -1,4 C 93 % 1030,6 hPa 0,0 mm 0,0 km/h (0 Bft) E-SE 112 0 min 0 W/m -2,4 C -1,4 C 0,0 km/h (0 Bft)
28/12/2011 01:40 -1,4 C 93 % 1030,5 hPa 0,0 mm 0,0 km/h (0 Bft) E-SE 112 0 min 0 W/m -2,4 C -1,4 C 0,0 km/h (0 Bft)
28/12/2011 01:45 -1,4 C 93 % 1030,5 hPa 0,0 mm 0,0 km/h (0 Bft) E-SE 112 0 min 0 W/m -2,4 C -1,4 C 0,0 km/h (0 Bft)
28/12/2011 01:50 -1,4 C 93 % 1030,6 hPa 0,0 mm 0,0 km/h (0 Bft) E-SE 112 0 min 0 W/m -2,4 C -1,4 C 0,0 km/h (0 Bft)
28/12/2011 01:55 -1,2 C 93 % 1030,5 hPa 0,0 mm 0,0 km/h (0 Bft) E-SE 112 0 min 0 W/m -2,2 C -1,2 C 0,0 km/h (0 Bft)
28/12/2011 02:02 -1,2 C 93 % 1030,5 hPa 0,0 mm 0,0 km/h (0 Bft) E-SE 112 0 min 0 W/m -2,2 C -1,2 C 0,0 km/h (0 Bft)
28/12/2011 02:05 -1,2 C 93 % 1030,4 hPa 0,0 mm 0,0 km/h (0 Bft) E-SE 112 0 min 0 W/m -2,2 C -1,2 C 0,0 km/h (0 Bft)
28/12/2011 02:10 -1,2 C 93 % 1030,4 hPa 0,0 mm 0,0 km/h (0 Bft) E-SE 112 0 min 0 W/m -2,2 C -1,2 C 0,0 km/h (0 Bft)
28/12/2011 02:15 -1,2 C 93 % 1030,5 hPa 0,0 mm 0,0 km/h (0 Bft) E-SE 112 0 min 0 W/m -2,2 C -1,2 C 0,0 km/h (0 Bft)
28/12/2011 02:20 -1,2 C 93 % 1030,4 hPa 0,0 mm 0,0 km/h (0 Bft) E-SE 112 0 min 0 W/m -2,2 C -1,2 C 0,0 km/h (0 Bft)
28/12/2011 02:25 -1,2 C 93 % 1030,5 hPa 0,0 mm 0,0 km/h (0 Bft) E-SE 112 0 min 0 W/m -2,2 C -1,2 C 0,0 km/h (0 Bft)
28/12/2011 02:30 -1,2 C 93 % 1030,5 hPa 0,0 mm 0,0 km/h (0 Bft) E-SE 112 0 min 0 W/m -2,2 C -1,2 C 0,0 km/h (0 Bft)
28/12/2011 02:35 -1,1 C 93 % 1030,5 hPa 0,0 mm 0,0 km/h (0 Bft) E-SE 112 0 min 0 W/m -2,1 C -1,1 C 0,0 km/h (0 Bft)
28/12/2011 02:40 -0,9 C 93 % 1030,5 hPa 0,0 mm 0,0 km/h (0 Bft) E-SE 112 0 min 0 W/m -1,9 C -0,9 C 0,0 km/h (0 Bft)
28/12/2011 02:45 -0,7 C 93 % 1030,6 hPa 0,0 mm 0,0 km/h (0 Bft) E-SE 112 0 min 0 W/m -1,7 C -0,7 C 0,0 km/h (0 Bft)
28/12/2011 02:50 -0,6 C 93 % 1030,6 hPa 0,0 mm 0,0 km/h (0 Bft) E-SE 112 0 min 0 W/m -1,6 C -0,6 C 0,0 km/h (0 Bft)
28/12/2011 02:55 -0,5 C 93 % 1030,6 hPa 0,0 mm 0,0 km/h (0 Bft) E-SE 112 0 min 0 W/m -1,5 C -0,5 C 0,0 km/h (0 Bft)
28/12/2011 03:00 -0,4 C 93 % 1030,6 hPa 0,0 mm 0,0 km/h (0 Bft) E-SE 112 0 min 0 W/m -1,4 C -0,4 C 0,0 km/h (0 Bft)
28/12/2011 03:05 -0,3 C 93 % 1030,6 hPa 0,0 mm 0,0 km/h (0 Bft) E-SE 112 0 min 0 W/m -1,3 C -0,3 C 0,0 km/h (0 Bft)
28/12/2011 03:10 -0,2 C 93 % 1030,6 hPa 0,0 mm 0,0 km/h (0 Bft) E-SE 112 0 min 0 W/m -1,2 C -0,2 C 0,0 km/h (0 Bft)
28/12/2011 03:15 -0,1 C 93 % 1030,6 hPa 0,0 mm 0,0 km/h (0 Bft) E-SE 112 0 min 0 W/m -1,1 C -0,1 C 0,0 km/h (0 Bft)
28/12/2011 03:20 0,1 C 94 % 1030,6 hPa 0,0 mm 0,0 km/h (0 Bft) E-SE 112 0 min 0 W/m -0,7 C 0,1 C 0,0 km/h (0 Bft)
28/12/2011 03:25 0,2 C 94 % 1030,5 hPa 0,0 mm 0,0 km/h (0 Bft) E-SE 112 0 min 0 W/m -0,6 C 0,2 C 0,0 km/h (0 Bft)
28/12/2011 03:30 0,2 C 94 % 1030,4 hPa 0,0 mm 0,0 km/h (0 Bft) E-SE 112 0 min 0 W/m -0,6 C 0,2 C 0,0 km/h (0 Bft)
28/12/2011 03:35 0,3 C 94 % 1030,3 hPa 0,0 mm 0,0 km/h (0 Bft) E-SE 112 0 min 0 W/m -0,5 C 0,3 C 0,0 km/h (0 Bft)
28/12/2011 03:40 0,3 C 94 % 1030,1 hPa 0,0 mm 0,0 km/h (0 Bft) N 360 0 min 0 W/m -0,5 C 0,3 C 0,0 km/h (0 Bft)
28/12/2011 03:45 0,4 C 94 % 1030,0 hPa 0,0 mm 0,0 km/h (0 Bft) S-SE 157 0 min 0 W/m -0,5 C 0,4 C 0,0 km/h (0 Bft)
28/12/2011 03:50 0,5 C 94 % 1030,0 hPa 0,0 mm 0,0 km/h (0 Bft) S 180 0 min 0 W/m -0,4 C 0,5 C 0,0 km/h (0 Bft)
28/12/2011 03:55 0,5 C 94 % 1030,0 hPa 0,0 mm 0,0 km/h (0 Bft) S 180 0 min 0 W/m -0,4 C 0,5 C 0,0 km/h (0 Bft)
28/12/2011 04:00 0,6 C 94 % 1030,0 hPa 0,0 mm 0,4 km/h (0 Bft) S 180 0 min 0 W/m -0,3 C 0,6 C 0,4 km/h (0 Bft)
28/12/2011 04:05 0,6 C 94 % 1029,8 hPa 0,0 mm 0,7 km/h (0 Bft) S 180 0 min 0 W/m -0,3 C 0,6 C 0,7 km/h (0 Bft)
28/12/2011 04:10 0,8 C 95 % 1029,6 hPa 0,0 mm 1,8 km/h (1 Bft) S 180 0 min 0 W/m 0,1 C 0,8 C 4,3 km/h (1 Bft)
28/12/2011 04:15 0,9 C 94 % 1029,6 hPa 0,0 mm 1,4 km/h (1 Bft) S 180 0 min 0 W/m 0,0 C 0,9 C 4,3 km/h (1 Bft)
28/12/2011 04:20 1,1 C 94 % 1029,6 hPa 0,0 mm 0,0 km/h (0 Bft) S 180 0 min 0 W/m 0,2 C 1,1 C 0,0 km/h (0 Bft)
28/12/2011 04:25 1,3 C 95 % 1029,5 hPa 0,0 mm 0,0 km/h (0 Bft) S 180 0 min 0 W/m 0,6 C 1,3 C 0,0 km/h (0 Bft)
28/12/2011 04:30 1,4 C 95 % 1029,4 hPa 0,0 mm 0,0 km/h (0 Bft) S 180 0 min 0 W/m 0,7 C 1,4 C 0,0 km/h (0 Bft)
28/12/2011 04:35 1,6 C 95 % 1029,4 hPa 0,0 mm 1,4 km/h (1 Bft) S 180 0 min 0 W/m 0,9 C 1,6 C 4,0 km/h (1 Bft)
28/12/2011 04:40 1,8 C 95 % 1029,2 hPa 0,0 mm 1,1 km/h (1 Bft) S 180 0 min 0 W/m 1,1 C 1,8 C 1,1 km/h (1 Bft)
28/12/2011 04:45 1,9 C 95 % 1029,2 hPa 0,0 mm 0,0 km/h (0 Bft) S 180 0 min 0 W/m 1,2 C 1,9 C 0,0 km/h (0 Bft)
28/12/2011 04:50 1,9 C 94 % 1029,2 hPa 0,0 mm 0,7 km/h (0 Bft) S 180 0 min 0 W/m 1,0 C 1,9 C 3,6 km/h (1 Bft)
28/12/2011 04:55 2,0 C 94 % 1029,1 hPa 0,0 mm 0,7 km/h (0 Bft) N 360 0 min 0 W/m 1,1 C 2,0 C 0,7 km/h (0 Bft)
28/12/2011 05:00 2,1 C 94 % 1029,0 hPa 0,0 mm 3,2 km/h (1 Bft) S-SE 157 0 min 0 W/m 1,2 C 2,1 C 4,3 km/h (1 Bft)
28/12/2011 05:05 2,3 C 94 % 1029,0 hPa 0,0 mm 0,7 km/h (0 Bft) S-SE 157 0 min 0 W/m 1,4 C 2,3 C 3,6 km/h (1 Bft)
28/12/2011 05:10 2,3 C 94 % 1028,8 hPa 0,0 mm 1,8 km/h (1 Bft) S-SE 157 0 min 0 W/m 1,4 C 2,3 C 9,7 km/h (2 Bft)
28/12/2011 05:15 2,4 C 94 % 1028,7 hPa 0,0 mm 4,3 km/h (1 Bft) S-SE 157 0 min 0 W/m 1,5 C 2,4 C 7,9 km/h (2 Bft)
28/12/2011 05:20 2,6 C 94 % 1028,6 hPa 0,0 mm 3,2 km/h (1 Bft) S 180 0 min 0 W/m 1,7 C 2,6 C 6,1 km/h (2 Bft)
28/12/2011 05:25 2,8 C 94 % 1028,6 hPa 0,0 mm 2,5 km/h (1 Bft) S-SE 157 0 min 0 W/m 1,9 C 2,8 C 4,0 km/h (1 Bft)
28/12/2011 05:30 2,8 C 94 % 1028,6 hPa 0,0 mm 1,4 km/h (1 Bft) S 180 0 min 0 W/m 1,9 C 2,8 C 3,2 km/h (1 Bft)
28/12/2011 05:35 2,9 C 94 % 1028,5 hPa 0,0 mm 1,1 km/h (1 Bft) S-SE 157 0 min 0 W/m 2,0 C 2,9 C 3,6 km/h (1 Bft)
28/12/2011 05:40 2,9 C 93 % 1028,5 hPa 0,0 mm 2,5 km/h (1 Bft) S 180 0 min 0 W/m 1,9 C 2,9 C 4,3 km/h (1 Bft)
28/12/2011 05:45 2,9 C 93 % 1028,5 hPa 0,0 mm 0,0 km/h (0 Bft) S-SE 157 0 min 0 W/m 1,9 C 2,9 C 0,0 km/h (0 Bft)
28/12/2011 05:50 2,9 C 93 % 1028,3 hPa 0,0 mm 1,8 km/h (1 Bft) S-SE 157 0 min 0 W/m 1,9 C 2,9 C 6,1 km/h (2 Bft)
28/12/2011 05:55 2,9 C 92 % 1028,2 hPa 0,0 mm 1,4 km/h (1 Bft) S 180 0 min 0 W/m 1,7 C 2,9 C 3,2 km/h (1 Bft)
28/12/2011 06:00 3,0 C 93 % 1028,2 hPa 0,0 mm 1,8 km/h (1 Bft) S-SE 157 0 min 0 W/m 2,0 C 3,0 C 4,3 km/h (1 Bft)
28/12/2011 06:05 2,9 C 92 % 1028,2 hPa 0,1 mm 0,4 km/h (0 Bft) S-SE 157 0 min 0 W/m 1,7 C 2,9 C 3,2 km/h (1 Bft)
28/12/2011 06:10 2,9 C 92 % 1028,2 hPa 0,0 mm 2,2 km/h (1 Bft) SE 135 0 min 0 W/m 1,7 C 2,9 C 2,2 km/h (1 Bft)
28/12/2011 06:15 2,9 C 92 % 1028,1 hPa 0,0 mm 2,2 km/h (1 Bft) S 180 0 min 0 W/m 1,7 C 2,9 C 6,1 km/h (2 Bft)
28/12/2011 06:20 2,9 C 92 % 1028,2 hPa 0,0 mm 0,0 km/h (0 Bft) S-SO 202 0 min 0 W/m 1,7 C 2,9 C 3,2 km/h (1 Bft)
28/12/2011 06:25 2,9 C 92 % 1028,4 hPa 0,0 mm 0,0 km/h (0 Bft) S 180 0 min 0 W/m 1,7 C 2,9 C 3,2 km/h (1 Bft)
28/12/2011 06:30 2,9 C 91 % 1028,5 hPa 0,0 mm 0,4 km/h (0 Bft) S-SO 202 0 min 0 W/m 1,6 C 2,9 C 0,4 km/h (0 Bft)
28/12/2011 06:35 2,9 C 91 % 1028,6 hPa 0,0 mm 0,4 km/h (0 Bft) S-SO 202 0 min 0 W/m 1,6 C 2,9 C 3,2 km/h (1 Bft)
28/12/2011 06:40 2,9 C 91 % 1028,6 hPa 0,0 mm 1,4 km/h (1 Bft) S 180 0 min 0 W/m 1,6 C 2,9 C 2,9 km/h (1 Bft)
28/12/2011 06:45 2,9 C 91 % 1028,7 hPa 0,0 mm 0,4 km/h (0 Bft) S 180 0 min 0 W/m 1,6 C 2,9 C 3,2 km/h (1 Bft)
28/12/2011 06:50 2,8 C 91 % 1028,9 hPa 0,0 mm 0,7 km/h (0 Bft) S 180 0 min 0 W/m 1,5 C 2,8 C 4,3 km/h (1 Bft)
28/12/2011 06:55 2,8 C 91 % 1029,0 hPa 0,0 mm 1,4 km/h (1 Bft) SO 225 0 min 0 W/m 1,5 C 2,8 C 5,4 km/h (2 Bft)
28/12/2011 07:00 2,9 C 91 % 1029,0 hPa 0,0 mm 2,9 km/h (1 Bft) SO 225 0 min 0 W/m 1,6 C 2,9 C 6,5 km/h (2 Bft)
28/12/2011 07:05 2,9 C 91 % 1029,1 hPa 0,0 mm 6,1 km/h (2 Bft) SO 225 0 min 0 W/m 1,6 C 1,3 C 7,9 km/h (2 Bft)
28/12/2011 07:10 3,1 C 90 % 1029,2 hPa 0,0 mm 2,5 km/h (1 Bft) SO 225 0 min 0 W/m 1,6 C 3,1 C 4,0 km/h (1 Bft)
28/12/2011 07:15 3,1 C 89 % 1029,3 hPa 0,0 mm 2,5 km/h (1 Bft) S-SO 202 0 min 0 W/m 1,5 C 3,1 C 6,1 km/h (2 Bft)
28/12/2011 07:20 3,1 C 89 % 1029,3 hPa 0,0 mm 1,8 km/h (1 Bft) SO 225 0 min 0 W/m 1,5 C 3,1 C 6,5 km/h (2 Bft)
28/12/2011 07:25 3,2 C 88 % 1029,3 hPa 0,0 mm 4,3 km/h (1 Bft) S 180 0 min 0 W/m 1,4 C 3,2 C 6,8 km/h (2 Bft)
28/12/2011 07:30 3,2 C 88 % 1029,3 hPa 0,0 mm 4,3 km/h (1 Bft) O-SO 247 0 min 0 W/m 1,4 C 3,2 C 6,8 km/h (2 Bft)
28/12/2011 07:35 3,2 C 88 % 1029,3 hPa 0,0 mm 2,9 km/h (1 Bft) SO 225 0 min 0 W/m 1,4 C 3,2 C 4,3 km/h (1 Bft)
28/12/2011 07:40 3,2 C 88 % 1029,5 hPa 0,0 mm 0,7 km/h (0 Bft) O-SO 247 0 min 0 W/m 1,4 C 3,2 C 3,6 km/h (1 Bft)
28/12/2011 07:45 3,1 C 88 % 1029,4 hPa 0,0 mm 1,4 km/h (1 Bft) O-SO 247 0 min 0 W/m 1,3 C 3,1 C 4,3 km/h (1 Bft)
28/12/2011 07:50 2,9 C 88 % 1029,5 hPa 0,0 mm 0,0 km/h (0 Bft) S-SO 202 0 min 0 W/m 1,1 C 2,9 C 0,0 km/h (0 Bft)
28/12/2011 07:55 2,8 C 88 % 1029,4 hPa 0,0 mm 0,7 km/h (0 Bft) S-SO 202 0 min 0 W/m 1,0 C 2,8 C 0,7 km/h (0 Bft)
28/12/2011 08:00 2,6 C 88 % 1029,2 hPa 0,0 mm 0,7 km/h (0 Bft) S-SO 202 0 min 0 W/m 0,8 C 2,6 C 0,7 km/h (0 Bft)
28/12/2011 08:05 2,6 C 89 % 1029,0 hPa 0,0 mm 6,5 km/h (2 Bft) S-SO 202 0 min 0 W/m 1,0 C 0,8 C 9,4 km/h (2 Bft)
28/12/2011 08:10 2,6 C 89 % 1029,2 hPa 0,0 mm 2,2 km/h (1 Bft) S-SO 202 0 min 0 W/m 1,0 C 2,6 C 3,6 km/h (1 Bft)
28/12/2011 08:15 2,6 C 89 % 1029,4 hPa 0,0 mm 0,4 km/h (0 Bft) SO 225 0 min 0 W/m 1,0 C 2,6 C 3,6 km/h (1 Bft)
28/12/2011 08:20 2,6 C 89 % 1029,2 hPa 0,0 mm 5,8 km/h (2 Bft) S-SO 202 0 min 0 W/m 1,0 C 1,0 C 8,3 km/h (2 Bft)
28/12/2011 08:25 2,6 C 89 % 1029,2 hPa 0,0 mm 6,1 km/h (2 Bft) S-SO 202 0 min 0 W/m 1,0 C 0,9 C 10,4 km/h (2 Bft)
28/12/2011 08:30 2,6 C 89 % 1029,2 hPa 0,0 mm 4,0 km/h (1 Bft) S-SO 202 0 min 0 W/m 1,0 C 2,6 C 8,3 km/h (2 Bft)
28/12/2011 08:35 2,6 C 90 % 1029,3 hPa 0,0 mm 5,8 km/h (2 Bft) S-SO 202 0 min 0 W/m 1,1 C 1,0 C 9,0 km/h (2 Bft)
28/12/2011 08:40 2,8 C 90 % 1029,3 hPa 0,0 mm 5,8 km/h (2 Bft) S-SO 202 0 min 0 W/m 1,3 C 1,3 C 10,8 km/h (2 Bft)
28/12/2011 08:45 2,8 C 90 % 1029,3 hPa 0,0 mm 5,8 km/h (2 Bft) N 360 0 min 0 W/m 1,3 C 1,3 C 5,8 km/h (2 Bft)
28/12/2011 08:50 2,9 C 90 % 1029,5 hPa 0,0 mm 6,1 km/h (2 Bft) SO 225 0 min 0 W/m 1,4 C 1,3 C 10,1 km/h (2 Bft)
28/12/2011 08:55 3,0 C 89 % 1029,5 hPa 0,0 mm 6,8 km/h (2 Bft) S-SO 202 0 min 0 W/m 1,4 C 1,1 C 8,6 km/h (2 Bft)
28/12/2011 09:00 3,1 C 89 % 1029,4 hPa 0,0 mm 7,2 km/h (2 Bft) S-SO 202 0 min 0 W/m 1,5 C 1,1 C 11,9 km/h (2 Bft)
28/12/2011 09:05 3,3 C 89 % 1029,4 hPa 0,0 mm 6,8 km/h (2 Bft) S-SO 202 0 min 0 W/m 1,7 C 1,5 C 9,0 km/h (2 Bft)
28/12/2011 09:10 3,4 C 89 % 1029,3 hPa 0,0 mm 6,5 km/h (2 Bft) SO 225 0 min 0 W/m 1,8 C 1,7 C 9,0 km/h (2 Bft)
28/12/2011 09:15 3,4 C 89 % 1029,5 hPa 0,0 mm 5,0 km/h (1 Bft) S-SO 202 0 min 0 W/m 1,8 C 2,3 C 8,3 km/h (2 Bft)
28/12/2011 09:20 3,5 C 89 % 1029,4 hPa 0,0 mm 2,9 km/h (1 Bft) S-SO 202 0 min 0 W/m 1,9 C 3,5 C 4,3 km/h (1 Bft)
28/12/2011 09:25 3,6 C 89 % 1029,6 hPa 0,0 mm 1,1 km/h (1 Bft) S-SO 202 0 min 0 W/m 2,0 C 3,6 C 4,3 km/h (1 Bft)
28/12/2011 09:30 3,8 C 90 % 1029,5 hPa 0,0 mm 1,1 km/h (1 Bft) SO 225 0 min 0 W/m 2,3 C 3,8 C 3,2 km/h (1 Bft)
28/12/2011 09:35 4,1 C 90 % 1029,6 hPa 0,0 mm 1,8 km/h (1 Bft) SO 225 0 min 0 W/m 2,6 C 4,1 C 5,8 km/h (2 Bft)
28/12/2011 09:40 4,3 C 90 % 1029,7 hPa 0,0 mm 0,0 km/h (0 Bft) SO 225 0 min 0 W/m 2,8 C 4,3 C 3,2 km/h (1 Bft)
28/12/2011 09:45 4,6 C 90 % 1029,8 hPa 0,0 mm 1,1 km/h (1 Bft) S-SO 202 0 min 0 W/m 3,1 C 4,6 C 4,0 km/h (1 Bft)
28/12/2011 09:50 4,8 C 89 % 1029,6 hPa 0,0 mm 2,9 km/h (1 Bft) S-SO 202 0 min 0 W/m 3,1 C 4,8 C 6,1 km/h (2 Bft)
28/12/2011 09:55 5,1 C 90 % 1029,8 hPa 0,0 mm 0,4 km/h (0 Bft) SO 225 0 min 0 W/m 3,6 C 5,1 C 0,4 km/h (0 Bft)
28/12/2011 10:00 5,3 C 89 % 1029,8 hPa 0,0 mm 1,1 km/h (1 Bft) S-SO 202 0 min 0 W/m 3,6 C 5,3 C 1,1 km/h (1 Bft)
28/12/2011 10:05 5,4 C 89 % 1029,8 hPa 0,0 mm 0,0 km/h (0 Bft) SO 225 0 min 0 W/m 3,7 C 5,4 C 0,0 km/h (0 Bft)
28/12/2011 10:10 5,4 C 89 % 1029,8 hPa 0,0 mm 2,9 km/h (1 Bft) S-SO 202 0 min 0 W/m 3,7 C 5,4 C 4,0 km/h (1 Bft)
28/12/2011 10:15 5,5 C 90 % 1029,8 hPa 0,0 mm 2,9 km/h (1 Bft) SO 225 0 min 0 W/m 4,0 C 5,5 C 7,2 km/h (2 Bft)
28/12/2011 10:20 5,6 C 90 % 1029,9 hPa 0,0 mm 3,2 km/h (1 Bft) S-SO 202 0 min 0 W/m 4,1 C 5,6 C 6,5 km/h (2 Bft)
28/12/2011 10:25 5,8 C 91 % 1029,8 hPa 0,0 mm 3,2 km/h (1 Bft) S-SO 202 0 min 0 W/m 4,4 C 5,8 C 6,5 km/h (2 Bft)
28/12/2011 10:30 6,2 C 92 % 1029,8 hPa 0,0 mm 1,8 km/h (1 Bft) SO 225 0 min 0 W/m 5,0 C 6,2 C 4,0 km/h (1 Bft)
28/12/2011 10:35 6,6 C 92 % 1030,0 hPa 0,0 mm 2,9 km/h (1 Bft) S-SO 202 0 min 0 W/m 5,4 C 6,6 C 6,5 km/h (2 Bft)
28/12/2011 10:40 6,8 C 91 % 1030,0 hPa 0,0 mm 2,9 km/h (1 Bft) SO 225 0 min 0 W/m 5,4 C 6,8 C 6,5 km/h (2 Bft)
28/12/2011 10:45 6,9 C 91 % 1030,1 hPa 0,0 mm 9,0 km/h (2 Bft) S-SO 202 0 min 0 W/m 5,5 C 5,1 C 10,1 km/h (2 Bft)
28/12/2011 10:50 7,1 C 89 % 1030,1 hPa 0,0 mm 4,3 km/h (1 Bft) S-SO 202 0 min 0 W/m 5,4 C 7,1 C 7,6 km/h (2 Bft)
28/12/2011 10:55 7,1 C 89 % 1029,9 hPa 0,0 mm 5,8 km/h (2 Bft) S-SO 202 0 min 0 W/m 5,4 C 6,2 C 5,8 km/h (2 Bft)
28/12/2011 11:00 6,9 C 89 % 1029,9 hPa 0,0 mm 2,9 km/h (1 Bft) O-SO 247 0 min 0 W/m 5,2 C 6,9 C 6,1 km/h (2 Bft)
28/12/2011 11:05 7,1 C 89 % 1029,9 hPa 0,0 mm 2,2 km/h (1 Bft) SO 225 0 min 0 W/m 5,4 C 7,1 C 2,9 km/h (1 Bft)
28/12/2011 11:10 7,1 C 89 % 1029,9 hPa 0,0 mm 3,2 km/h (1 Bft) SO 225 0 min 0 W/m 5,4 C 7,1 C 6,1 km/h (2 Bft)
28/12/2011 11:15 7,1 C 90 % 1029,8 hPa 0,0 mm 4,3 km/h (1 Bft) S-SO 202 0 min 0 W/m 5,6 C 7,1 C 11,2 km/h (2 Bft)
28/12/2011 11:20 7,2 C 90 % 1029,9 hPa 0,0 mm 4,3 km/h (1 Bft) S-SO 202 0 min 0 W/m 5,7 C 7,2 C 7,6 km/h (2 Bft)
28/12/2011 11:25 7,2 C 91 % 1029,7 hPa 0,0 mm 2,9 km/h (1 Bft) O-SO 247 0 min 0 W/m 5,8 C 7,2 C 4,3 km/h (1 Bft)
28/12/2011 11:30 7,2 C 91 % 1029,7 hPa 0,0 mm 4,7 km/h (1 Bft) S-SO 202 0 min 0 W/m 5,8 C 6,7 C 7,2 km/h (2 Bft)
28/12/2011 11:35 7,3 C 91 % 1029,6 hPa 0,0 mm 1,4 km/h (1 Bft) O-SO 247 0 min 0 W/m 5,9 C 7,3 C 4,0 km/h (1 Bft)
28/12/2011 11:40 7,3 C 91 % 1029,6 hPa 0,0 mm 4,7 km/h (1 Bft) S-SO 202 0 min 0 W/m 5,9 C 6,8 C 7,9 km/h (2 Bft)
28/12/2011 11:45 7,4 C 91 % 1029,5 hPa 0,0 mm 7,2 km/h (2 Bft) S-SO 202 0 min 0 W/m 6,0 C 6,1 C 8,6 km/h (2 Bft)
28/12/2011 11:50 7,4 C 92 % 1029,4 hPa 0,0 mm 5,4 km/h (2 Bft) S-SO 202 0 min 0 W/m 6,2 C 6,7 C 8,6 km/h (2 Bft)
28/12/2011 11:55 7,4 C 91 % 1029,4 hPa 0,0 mm 10,1 km/h (2 Bft) S 180 0 min 0 W/m 6,0 C 5,5 C 14,8 km/h (3 Bft)
28/12/2011 12:00 7,5 C 91 % 1029,3 hPa 0,0 mm 6,5 km/h (2 Bft) S-SO 202 0 min 0 W/m 6,1 C 6,5 C 10,1 km/h (2 Bft)
28/12/2011 12:05 7,5 C 91 % 1029,4 hPa 0,0 mm 4,3 km/h (1 Bft) S-SO 202 0 min 0 W/m 6,1 C 7,5 C 7,6 km/h (2 Bft)
28/12/2011 12:10 7,6 C 91 % 1029,3 hPa 0,0 mm 2,2 km/h (1 Bft) S-SO 202 0 min 0 W/m 6,2 C 7,6 C 2,9 km/h (1 Bft)
28/12/2011 12:15 7,6 C 91 % 1029,2 hPa 0,0 mm 2,9 km/h (1 Bft) S-SO 202 0 min 0 W/m 6,2 C 7,6 C 4,0 km/h (1 Bft)
28/12/2011 12:20 7,6 C 90 % 1029,1 hPa 0,0 mm 1,1 km/h (1 Bft) SO 225 0 min 0 W/m 6,1 C 7,6 C 1,1 km/h (1 Bft)
28/12/2011 12:25 7,7 C 91 % 1029,1 hPa 0,0 mm 2,2 km/h (1 Bft) S-SO 202 0 min 0 W/m 6,3 C 7,7 C 6,5 km/h (2 Bft)
28/12/2011 12:30 7,6 C 90 % 1029,0 hPa 0,0 mm 6,5 km/h (2 Bft) S-SO 202 0 min 0 W/m 6,1 C 6,6 C 6,8 km/h (2 Bft)
28/12/2011 12:35 7,6 C 90 % 1028,9 hPa 0,0 mm 6,5 km/h (2 Bft) SO 225 0 min 0 W/m 6,1 C 6,6 C 14,4 km/h (3 Bft)
28/12/2011 12:40 7,6 C 90 % 1028,8 hPa 0,0 mm 4,7 km/h (1 Bft) O-SO 247 0 min 0 W/m 6,1 C 7,1 C 8,3 km/h (2 Bft)
28/12/2011 12:45 7,5 C 90 % 1028,8 hPa 0,0 mm 3,2 km/h (1 Bft) SO 225 0 min 0 W/m 6,0 C 7,5 C 4,0 km/h (1 Bft)
28/12/2011 12:50 7,6 C 90 % 1028,8 hPa 0,0 mm 7,2 km/h (2 Bft) SO 225 0 min 0 W/m 6,1 C 6,4 C 8,3 km/h (2 Bft)
28/12/2011 12:55 7,6 C 90 % 1028,7 hPa 0,0 mm 2,9 km/h (1 Bft) SO 225 0 min 0 W/m 6,1 C 7,6 C 6,1 km/h (2 Bft)
28/12/2011 13:00 7,5 C 90 % 1028,6 hPa 0,0 mm 3,6 km/h (1 Bft) S-SO 202 0 min 0 W/m 6,0 C 7,5 C 3,6 km/h (1 Bft)
28/12/2011 13:05 7,5 C 90 % 1028,7 hPa 0,0 mm 2,9 km/h (1 Bft) SO 225 0 min 0 W/m 6,0 C 7,5 C 4,3 km/h (1 Bft)
28/12/2011 13:10 7,5 C 89 % 1028,7 hPa 0,0 mm 3,6 km/h (1 Bft) SO 225 0 min 0 W/m 5,8 C 7,5 C 4,3 km/h (1 Bft)
28/12/2011 13:15 7,5 C 89 % 1028,5 hPa 0,0 mm 2,5 km/h (1 Bft) SO 225 0 min 0 W/m 5,8 C 7,5 C 6,8 km/h (2 Bft)
28/12/2011 13:20 7,5 C 89 % 1028,5 hPa 0,0 mm 3,2 km/h (1 Bft) S-SO 202 0 min 0 W/m 5,8 C 7,5 C 9,0 km/h (2 Bft)
28/12/2011 13:25 7,5 C 90 % 1028,5 hPa 0,0 mm 5,4 km/h (2 Bft) SO 225 0 min 0 W/m 6,0 C 6,8 C 8,6 km/h (2 Bft)
28/12/2011 13:30 7,5 C 90 % 1028,4 hPa 0,0 mm 5,8 km/h (2 Bft) SO 225 0 min 0 W/m 6,0 C 6,7 C 9,7 km/h (2 Bft)
28/12/2011 13:35 7,5 C 90 % 1028,3 hPa 0,0 mm 3,2 km/h (1 Bft) SO 225 0 min 0 W/m 6,0 C 7,5 C 7,2 km/h (2 Bft)
28/12/2011 13:40 7,4 C 90 % 1028,3 hPa 0,0 mm 5,0 km/h (1 Bft) S-SO 202 0 min 0 W/m 5,9 C 6,8 C 7,6 km/h (2 Bft)
28/12/2011 13:45 7,4 C 90 % 1028,2 hPa 0,0 mm 6,1 km/h (2 Bft) S-SO 202 0 min 0 W/m 5,9 C 6,5 C 7,6 km/h (2 Bft)
28/12/2011 13:50 7,4 C 90 % 1028,2 hPa 0,0 mm 2,9 km/h (1 Bft) SO 225 0 min 0 W/m 5,9 C 7,4 C 6,5 km/h (2 Bft)
28/12/2011 13:55 7,4 C 90 % 1028,2 hPa 0,0 mm 5,8 km/h (2 Bft) S-SO 202 0 min 0 W/m 5,9 C 6,5 C 11,5 km/h (2 Bft)
28/12/2011 14:00 7,5 C 90 % 1028,1 hPa 0,0 mm 7,6 km/h (2 Bft) S 180 0 min 0 W/m 6,0 C 6,2 C 8,3 km/h (2 Bft)
28/12/2011 14:05 7,4 C 90 % 1028,1 hPa 0,0 mm 5,4 km/h (2 Bft) SO 225 0 min 0 W/m 5,9 C 6,7 C 10,4 km/h (2 Bft)
28/12/2011 14:10 7,4 C 90 % 1028,1 hPa 0,0 mm 5,0 km/h (1 Bft) SO 225 0 min 0 W/m 5,9 C 6,8 C 8,6 km/h (2 Bft)
28/12/2011 14:15 7,5 C 90 % 1028,1 hPa 0,0 mm 5,4 km/h (2 Bft) SO 225 0 min 0 W/m 6,0 C 6,8 C 6,8 km/h (2 Bft)
28/12/2011 14:20 7,5 C 90 % 1028,1 hPa 0,0 mm 2,9 km/h (1 Bft) SO 225 0 min 0 W/m 6,0 C 7,5 C 5,8 km/h (2 Bft)
28/12/2011 14:25 7,5 C 91 % 1028,0 hPa 0,0 mm 0,7 km/h (0 Bft) S-SO 202 0 min 0 W/m 6,1 C 7,5 C 4,0 km/h (1 Bft)
28/12/2011 14:30 7,5 C 91 % 1027,9 hPa 0,0 mm 2,5 km/h (1 Bft) SO 225 0 min 0 W/m 6,1 C 7,5 C 4,0 km/h (1 Bft)
28/12/2011 14:35 7,5 C 91 % 1027,9 hPa 0,0 mm 7,6 km/h (2 Bft) S 180 0 min 0 W/m 6,1 C 6,2 C 9,7 km/h (2 Bft)
28/12/2011 14:40 7,6 C 91 % 1027,9 hPa 0,0 mm 6,1 km/h (2 Bft) S-SO 202 0 min 0 W/m 6,2 C 6,7 C 9,4 km/h (2 Bft)
28/12/2011 14:45 7,6 C 91 % 1027,8 hPa 0,0 mm 5,8 km/h (2 Bft) S-SO 202 0 min 0 W/m 6,2 C 6,8 C 7,2 km/h (2 Bft)
28/12/2011 14:50 7,6 C 91 % 1027,9 hPa 0,0 mm 5,8 km/h (2 Bft) SO 225 0 min 0 W/m 6,2 C 6,8 C 7,9 km/h (2 Bft)
28/12/2011 14:55 7,6 C 91 % 1027,9 hPa 0,0 mm 7,2 km/h (2 Bft) S-SO 202 0 min 0 W/m 6,2 C 6,4 C 9,7 km/h (2 Bft)
28/12/2011 15:00 7,7 C 91 % 1027,7 hPa 0,0 mm 7,9 km/h (2 Bft) S-SO 202 0 min 0 W/m 6,3 C 6,3 C 9,4 km/h (2 Bft)
28/12/2011 15:05 7,6 C 91 % 1027,8 hPa 0,0 mm 5,0 km/h (1 Bft) S-SO 202 0 min 0 W/m 6,2 C 7,0 C 11,9 km/h (2 Bft)
28/12/2011 15:10 7,7 C 91 % 1027,9 hPa 0,0 mm 4,3 km/h (1 Bft) SO 225 0 min 0 W/m 6,3 C 7,7 C 7,6 km/h (2 Bft)
28/12/2011 15:15 7,8 C 91 % 1027,9 hPa 0,0 mm 4,7 km/h (1 Bft) SO 225 0 min 0 W/m 6,4 C 7,4 C 9,4 km/h (2 Bft)
28/12/2011 15:20 7,8 C 91 % 1027,9 hPa 0,0 mm 3,6 km/h (1 Bft) SO 225 0 min 0 W/m 6,4 C 7,8 C 4,7 km/h (1 Bft)
28/12/2011 15:25 7,8 C 91 % 1028,0 hPa 0,0 mm 6,1 km/h (2 Bft) S-SO 202 0 min 0 W/m 6,4 C 6,9 C 9,4 km/h (2 Bft)
28/12/2011 15:30 7,8 C 91 % 1028,0 hPa 0,0 mm 4,3 km/h (1 Bft) O-SO 247 0 min 0 W/m 6,4 C 7,8 C 8,3 km/h (2 Bft)
28/12/2011 15:35 7,8 C 91 % 1027,9 hPa 0,0 mm 6,1 km/h (2 Bft) SO 225 0 min 0 W/m 6,4 C 6,9 C 6,1 km/h (2 Bft)
28/12/2011 15:40 7,7 C 91 % 1028,0 hPa 0,0 mm 2,9 km/h (1 Bft) SO 225 0 min 0 W/m 6,3 C 7,7 C 3,6 km/h (1 Bft)
28/12/2011 15:45 7,7 C 92 % 1028,0 hPa 0,0 mm 3,6 km/h (1 Bft) SO 225 0 min 0 W/m 6,5 C 7,7 C 7,9 km/h (2 Bft)
28/12/2011 15:50 7,7 C 92 % 1028,1 hPa 0,0 mm 1,4 km/h (1 Bft) SO 225 0 min 0 W/m 6,5 C 7,7 C 5,8 km/h (2 Bft)
28/12/2011 15:55 7,7 C 92 % 1028,0 hPa 0,0 mm 2,2 km/h (1 Bft) SO 225 0 min 0 W/m 6,5 C 7,7 C 4,3 km/h (1 Bft)
28/12/2011 16:00 7,7 C 92 % 1028,0 hPa 0,0 mm 7,6 km/h (2 Bft) SO 225 0 min 0 W/m 6,5 C 6,4 C 9,4 km/h (2 Bft)
28/12/2011 16:05 7,7 C 92 % 1028,0 hPa 0,0 mm 7,6 km/h (2 Bft) SO 225 0 min 0 W/m 6,5 C 6,4 C 15,1 km/h (3 Bft)
28/12/2011 16:10 7,8 C 92 % 1028,0 hPa 0,0 mm 4,7 km/h (1 Bft) SO 225 0 min 0 W/m 6,6 C 7,4 C 7,6 km/h (2 Bft)
28/12/2011 16:15 7,8 C 92 % 1027,9 hPa 0,0 mm 7,2 km/h (2 Bft) S-SO 202 0 min 0 W/m 6,6 C 6,6 C 12,6 km/h (3 Bft)
28/12/2011 16:20 7,8 C 92 % 1027,9 hPa 0,0 mm 7,2 km/h (2 Bft) SO 225 0 min 0 W/m 6,6 C 6,6 C 10,4 km/h (2 Bft)
28/12/2011 16:25 7,8 C 92 % 1027,7 hPa 0,0 mm 9,7 km/h (2 Bft) S-SO 202 0 min 0 W/m 6,6 C 6,1 C 14,4 km/h (3 Bft)
28/12/2011 16:30 7,8 C 92 % 1027,8 hPa 0,0 mm 6,8 km/h (2 Bft) S-SO 202 0 min 0 W/m 6,6 C 6,7 C 11,2 km/h (2 Bft)
28/12/2011 16:35 7,8 C 92 % 1027,6 hPa 0,0 mm 4,3 km/h (1 Bft) S-SO 202 0 min 0 W/m 6,6 C 7,8 C 7,9 km/h (2 Bft)
28/12/2011 16:40 7,8 C 92 % 1027,7 hPa 0,0 mm 1,8 km/h (1 Bft) SO 225 0 min 0 W/m 6,6 C 7,8 C 4,3 km/h (1 Bft)
28/12/2011 16:45 7,8 C 92 % 1027,7 hPa 0,0 mm 6,1 km/h (2 Bft) SO 225 0 min 0 W/m 6,6 C 6,9 C 15,5 km/h (3 Bft)
28/12/2011 16:50 7,8 C 92 % 1027,7 hPa 0,0 mm 6,5 km/h (2 Bft) SO 225 0 min 0 W/m 6,6 C 6,8 C 13,0 km/h (3 Bft)
28/12/2011 16:55 7,8 C 92 % 1027,8 hPa 0,0 mm 9,0 km/h (2 Bft) SO 225 0 min 0 W/m 6,6 C 6,2 C 13,0 km/h (3 Bft)
28/12/2011 17:00 7,8 C 93 % 1027,6 hPa 0,0 mm 5,0 km/h (1 Bft) O-SO 247 0 min 0 W/m 6,7 C 7,3 C 10,1 km/h (2 Bft)
28/12/2011 17:05 7,8 C 93 % 1027,5 hPa 0,0 mm 7,6 km/h (2 Bft) S-SO 202 0 min 0 W/m 6,7 C 6,5 C 10,8 km/h (2 Bft)
28/12/2011 17:10 7,8 C 93 % 1027,4 hPa 0,0 mm 9,0 km/h (2 Bft) SO 225 0 min 0 W/m 6,7 C 6,2 C 12,6 km/h (3 Bft)
28/12/2011 17:15 7,8 C 93 % 1027,4 hPa 0,0 mm 5,0 km/h (1 Bft) S-SE 157 0 min 0 W/m 6,7 C 7,3 C 7,6 km/h (2 Bft)
28/12/2011 17:20 7,8 C 93 % 1027,4 hPa 0,0 mm 3,6 km/h (1 Bft) S 180 0 min 0 W/m 6,7 C 7,8 C 3,6 km/h (1 Bft)
28/12/2011 17:25 7,8 C 93 % 1027,4 hPa 0,0 mm 2,9 km/h (1 Bft) SO 225 0 min 0 W/m 6,7 C 7,8 C 3,2 km/h (1 Bft)
28/12/2011 17:30 7,8 C 93 % 1027,3 hPa 0,0 mm 10,8 km/h (2 Bft) SO 225 0 min 0 W/m 6,7 C 5,9 C 14,4 km/h (3 Bft)
28/12/2011 17:35 7,8 C 93 % 1027,3 hPa 0,0 mm 6,5 km/h (2 Bft) SO 225 0 min 0 W/m 6,7 C 6,8 C 10,4 km/h (2 Bft)
28/12/2011 17:40 7,7 C 93 % 1027,3 hPa 0,0 mm 6,5 km/h (2 Bft) S-SO 202 0 min 0 W/m 6,6 C 6,7 C 8,3 km/h (2 Bft)
28/12/2011 17:45 7,7 C 93 % 1027,2 hPa 0,0 mm 9,7 km/h (2 Bft) SO 225 0 min 0 W/m 6,6 C 5,9 C 15,5 km/h (3 Bft)
28/12/2011 17:50 7,7 C 93 % 1027,2 hPa 0,0 mm 3,6 km/h (1 Bft) S-SO 202 0 min 0 W/m 6,6 C 7,7 C 5,8 km/h (2 Bft)
28/12/2011 17:55 7,7 C 93 % 1027,3 hPa 0,0 mm 5,8 km/h (2 Bft) S-SO 202 0 min 0 W/m 6,6 C 6,9 C 12,6 km/h (3 Bft)
28/12/2011 18:00 7,7 C 93 % 1027,2 hPa 0,0 mm 7,9 km/h (2 Bft) SO 225 0 min 0 W/m 6,6 C 6,3 C 14,0 km/h (3 Bft)
28/12/2011 18:05 7,7 C 93 % 1027,2 hPa 0,0 mm 10,8 km/h (2 Bft) SO 225 0 min 0 W/m 6,6 C 5,7 C 13,0 km/h (3 Bft)
28/12/2011 18:10 7,7 C 93 % 1027,2 hPa 0,0 mm 9,0 km/h (2 Bft) S-SO 202 0 min 0 W/m 6,6 C 6,1 C 9,7 km/h (2 Bft)
28/12/2011 18:15 7,7 C 93 % 1027,3 hPa 0,0 mm 8,6 km/h (2 Bft) S-SO 202 0 min 0 W/m 6,6 C 6,2 C 13,0 km/h (3 Bft)
28/12/2011 18:20 7,7 C 93 % 1027,3 hPa 0,0 mm 9,4 km/h (2 Bft) S-SO 202 0 min 0 W/m 6,6 C 6,0 C 12,2 km/h (2 Bft)
28/12/2011 18:25 7,7 C 93 % 1027,3 hPa 0,0 mm 10,4 km/h (2 Bft) SO 225 0 min 0 W/m 6,6 C 5,8 C 14,8 km/h (3 Bft)
28/12/2011 18:30 7,7 C 93 % 1027,4 hPa 0,0 mm 6,8 km/h (2 Bft) SO 225 0 min 0 W/m 6,6 C 6,6 C 10,1 km/h (2 Bft)
28/12/2011 18:35 7,7 C 93 % 1027,4 hPa 0,0 mm 9,4 km/h (2 Bft) S-SO 202 0 min 0 W/m 6,6 C 6,0 C 13,7 km/h (3 Bft)
28/12/2011 18:40 7,6 C 93 % 1027,5 hPa 0,0 mm 6,5 km/h (2 Bft) S-SO 202 0 min 0 W/m 6,5 C 6,6 C 9,7 km/h (2 Bft)
28/12/2011 18:45 7,6 C 93 % 1027,5 hPa 0,0 mm 7,9 km/h (2 Bft) SO 225 0 min 0 W/m 6,5 C 6,2 C 11,2 km/h (2 Bft)
28/12/2011 18:50 7,6 C 94 % 1027,6 hPa 0,0 mm 5,0 km/h (1 Bft) S-SO 202 0 min 0 W/m 6,7 C 7,0 C 7,9 km/h (2 Bft)
28/12/2011 18:55 7,5 C 94 % 1027,6 hPa 0,0 mm 6,8 km/h (2 Bft) O-SO 247 0 min 0 W/m 6,6 C 6,4 C 11,2 km/h (2 Bft)
28/12/2011 19:00 7,5 C 94 % 1027,6 hPa 0,0 mm 5,8 km/h (2 Bft) S-SO 202 0 min 0 W/m 6,6 C 6,7 C 7,9 km/h (2 Bft)
28/12/2011 19:05 7,4 C 94 % 1027,7 hPa 0,0 mm 7,9 km/h (2 Bft) S-SO 202 0 min 0 W/m 6,5 C 6,0 C 10,8 km/h (2 Bft)
28/12/2011 19:10 7,4 C 94 % 1027,8 hPa 0,1 mm 6,1 km/h (2 Bft) SO 225 0 min 0 W/m 6,5 C 6,5 C 8,3 km/h (2 Bft)
28/12/2011 19:15 7,3 C 94 % 1027,9 hPa 0,0 mm 2,5 km/h (1 Bft) O-SO 247 0 min 0 W/m 6,4 C 7,3 C 3,6 km/h (1 Bft)
28/12/2011 19:20 7,3 C 95 % 1028,1 hPa 0,1 mm 5,0 km/h (1 Bft) O-SO 247 0 min 0 W/m 6,6 C 6,7 C 7,6 km/h (2 Bft)
28/12/2011 19:25 7,2 C 95 % 1028,1 hPa 0,1 mm 0,4 km/h (0 Bft) O-SO 247 0 min 0 W/m 6,5 C 7,2 C 0,4 km/h (0 Bft)
28/12/2011 19:30 7,2 C 95 % 1028,2 hPa 0,0 mm 9,7 km/h (2 Bft) O-SO 247 0 min 0 W/m 6,5 C 5,3 C 17,3 km/h (3 Bft)
28/12/2011 19:35 7,1 C 95 % 1028,1 hPa 0,0 mm 0,7 km/h (0 Bft) O-SO 247 0 min 0 W/m 6,4 C 7,1 C 4,0 km/h (1 Bft)
28/12/2011 19:40 7,1 C 95 % 1028,2 hPa 0,0 mm 4,0 km/h (1 Bft) S-SO 202 0 min 0 W/m 6,4 C 7,1 C 10,1 km/h (2 Bft)
28/12/2011 19:45 7,1 C 95 % 1028,2 hPa 0,1 mm 6,8 km/h (2 Bft) O-SO 247 0 min 0 W/m 6,4 C 5,9 C 12,2 km/h (2 Bft)
28/12/2011 19:50 7,1 C 95 % 1028,1 hPa 0,0 mm 4,3 km/h (1 Bft) SO 225 0 min 0 W/m 6,4 C 7,1 C 6,8 km/h (2 Bft)
28/12/2011 19:55 7,1 C 95 % 1028,0 hPa 0,0 mm 5,0 km/h (1 Bft) S-SO 202 0 min 0 W/m 6,4 C 6,5 C 5,0 km/h (1 Bft)
28/12/2011 20:00 7,1 C 95 % 1028,0 hPa 0,0 mm 2,2 km/h (1 Bft) SO 225 0 min 0 W/m 6,4 C 7,1 C 3,6 km/h (1 Bft)
28/12/2011 20:05 7,0 C 95 % 1028,1 hPa 0,0 mm 3,2 km/h (1 Bft) O-SO 247 0 min 0 W/m 6,3 C 7,0 C 7,6 km/h (2 Bft)
28/12/2011 20:10 6,9 C 95 % 1028,1 hPa 0,0 mm 1,4 km/h (1 Bft) SO 225 0 min 0 W/m 6,2 C 6,9 C 3,6 km/h (1 Bft)
28/12/2011 20:15 6,9 C 95 % 1028,1 hPa 0,0 mm 5,0 km/h (1 Bft) SO 225 0 min 0 W/m 6,2 C 6,2 C 7,9 km/h (2 Bft)
28/12/2011 20:20 6,9 C 95 % 1028,2 hPa 0,0 mm 2,2 km/h (1 Bft) SO 225 0 min 0 W/m 6,2 C 6,9 C 2,9 km/h (1 Bft)
28/12/2011 20:25 6,9 C 95 % 1028,2 hPa 0,0 mm 4,7 km/h (1 Bft) O-SO 247 0 min 0 W/m 6,2 C 6,3 C 8,6 km/h (2 Bft)
28/12/2011 20:30 6,9 C 95 % 1028,2 hPa 0,0 mm 2,5 km/h (1 Bft) S-SO 202 0 min 0 W/m 6,2 C 6,9 C 4,0 km/h (1 Bft)
28/12/2011 20:35 6,9 C 95 % 1028,2 hPa 0,0 mm 3,2 km/h (1 Bft) SO 225 0 min 0 W/m 6,2 C 6,9 C 8,3 km/h (2 Bft)
28/12/2011 20:40 6,9 C 95 % 1028,2 hPa 0,0 mm 1,8 km/h (1 Bft) SO 225 0 min 0 W/m 6,2 C 6,9 C 4,3 km/h (1 Bft)
28/12/2011 20:45 6,9 C 95 % 1028,3 hPa 0,0 mm 1,8 km/h (1 Bft) SO 225 0 min 0 W/m 6,2 C 6,9 C 4,3 km/h (1 Bft)
28/12/2011 20:50 6,9 C 95 % 1028,3 hPa 0,0 mm 1,1 km/h (1 Bft) O-SO 247 0 min 0 W/m 6,2 C 6,9 C 1,1 km/h (1 Bft)
28/12/2011 20:55 7,0 C 95 % 1028,3 hPa 0,0 mm 2,5 km/h (1 Bft) S-SO 202 0 min 0 W/m 6,3 C 7,0 C 6,5 km/h (2 Bft)
28/12/2011 21:00 7,1 C 95 % 1028,5 hPa 0,0 mm 0,0 km/h (0 Bft) O 270 0 min 0 W/m 6,4 C 7,1 C 0,0 km/h (0 Bft)
28/12/2011 21:05 7,1 C 95 % 1028,5 hPa 0,0 mm 0,7 km/h (0 Bft) O-SO 247 0 min 0 W/m 6,4 C 7,1 C 0,7 km/h (0 Bft)
28/12/2011 21:10 7,1 C 95 % 1028,6 hPa 0,0 mm 0,0 km/h (0 Bft) O-SO 247 0 min 0 W/m 6,4 C 7,1 C 0,0 km/h (0 Bft)
28/12/2011 21:15 7,1 C 95 % 1028,6 hPa 0,0 mm 0,4 km/h (0 Bft) O-SO 247 0 min 0 W/m 6,4 C 7,1 C 0,4 km/h (0 Bft)
28/12/2011 21:20 7,2 C 95 % 1028,6 hPa 0,0 mm 1,4 km/h (1 Bft) O 270 0 min 0 W/m 6,5 C 7,2 C 4,3 km/h (1 Bft)
28/12/2011 21:25 7,2 C 95 % 1028,7 hPa 0,0 mm 1,4 km/h (1 Bft) O-SO 247 0 min 0 W/m 6,5 C 7,2 C 1,4 km/h (1 Bft)
28/12/2011 21:30 7,2 C 95 % 1028,7 hPa 0,0 mm 0,0 km/h (0 Bft) O-SO 247 0 min 0 W/m 6,5 C 7,2 C 0,0 km/h (0 Bft)
28/12/2011 21:35 7,3 C 95 % 1028,7 hPa 0,0 mm 0,0 km/h (0 Bft) O-SO 247 0 min 0 W/m 6,6 C 7,3 C 2,9 km/h (1 Bft)
28/12/2011 21:40 7,3 C 95 % 1028,7 hPa 0,0 mm 2,2 km/h (1 Bft) O 270 0 min 0 W/m 6,6 C 7,3 C 4,0 km/h (1 Bft)
28/12/2011 21:45 7,3 C 95 % 1028,7 hPa 0,1 mm 4,0 km/h (1 Bft) O-SO 247 0 min 0 W/m 6,6 C 7,3 C 11,9 km/h (2 Bft)
28/12/2011 21:50 7,3 C 95 % 1028,8 hPa 0,1 mm 15,8 km/h (3 Bft) N-NO 337 0 min 0 W/m 6,6 C 4,5 C 16,6 km/h (3 Bft)
28/12/2011 21:55 7,3 C 95 % 1028,9 hPa 0,1 mm 11,5 km/h (2 Bft) NO 315 0 min 0 W/m 6,6 C 5,1 C 14,8 km/h (3 Bft)
28/12/2011 22:00 7,3 C 95 % 1029,0 hPa 0,1 mm 9,0 km/h (2 Bft) NO 315 0 min 0 W/m 6,6 C 5,6 C 10,1 km/h (2 Bft)
28/12/2011 22:05 7,2 C 95 % 1029,1 hPa 0,0 mm 15,5 km/h (3 Bft) N 360 0 min 0 W/m 6,5 C 4,4 C 23,0 km/h (4 Bft)
28/12/2011 22:10 7,2 C 95 % 1029,1 hPa 0,0 mm 5,0 km/h (1 Bft) NO 315 0 min 0 W/m 6,5 C 6,6 C 9,4 km/h (2 Bft)
28/12/2011 22:15 7,1 C 95 % 1029,2 hPa 0,0 mm 6,5 km/h (2 Bft) N-NO 337 0 min 0 W/m 6,4 C 6,0 C 14,8 km/h (3 Bft)
28/12/2011 22:20 7,1 C 95 % 1029,2 hPa 0,0 mm 5,4 km/h (2 Bft) NO 315 0 min 0 W/m 6,4 C 6,3 C 9,7 km/h (2 Bft)
28/12/2011 22:25 7,1 C 95 % 1029,3 hPa 0,0 mm 10,4 km/h (2 Bft) N 360 0 min 0 W/m 6,4 C 5,1 C 14,0 km/h (3 Bft)
28/12/2011 22:30 7,1 C 95 % 1029,3 hPa 0,0 mm 6,1 km/h (2 Bft) NO 315 0 min 0 W/m 6,4 C 6,1 C 10,4 km/h (2 Bft)
28/12/2011 22:35 7,0 C 95 % 1029,3 hPa 0,0 mm 12,6 km/h (3 Bft) NO 315 0 min 0 W/m 6,3 C 4,6 C 12,6 km/h (3 Bft)
28/12/2011 22:40 6,9 C 95 % 1029,4 hPa 0,0 mm 8,3 km/h (2 Bft) NO 315 0 min 0 W/m 6,2 C 5,3 C 13,0 km/h (3 Bft)
28/12/2011 22:45 6,9 C 95 % 1029,5 hPa 0,0 mm 10,8 km/h (2 Bft) N-NO 337 0 min 0 W/m 6,2 C 4,8 C 14,8 km/h (3 Bft)
28/12/2011 22:50 6,9 C 95 % 1029,6 hPa 0,0 mm 6,1 km/h (2 Bft) NO 315 0 min 0 W/m 6,2 C 5,9 C 10,8 km/h (2 Bft)
28/12/2011 22:55 6,9 C 95 % 1029,6 hPa 0,0 mm 7,6 km/h (2 Bft) NO 315 0 min 0 W/m 6,2 C 5,5 C 14,8 km/h (3 Bft)
28/12/2011 23:00 6,8 C 95 % 1029,6 hPa 0,0 mm 6,1 km/h (2 Bft) N-NE 22 0 min 0 W/m 6,1 C 5,8 C 9,4 km/h (2 Bft)
28/12/2011 23:05 6,8 C 95 % 1029,7 hPa 0,0 mm 1,1 km/h (1 Bft) N-NE 22 0 min 0 W/m 6,1 C 6,8 C 1,1 km/h (1 Bft)
28/12/2011 23:10 6,8 C 95 % 1029,7 hPa 0,0 mm 6,5 km/h (2 Bft) N-NO 337 0 min 0 W/m 6,1 C 5,6 C 6,5 km/h (2 Bft)
28/12/2011 23:15 6,8 C 95 % 1029,7 hPa 0,0 mm 3,2 km/h (1 Bft) O 270 0 min 0 W/m 6,1 C 6,8 C 8,6 km/h (2 Bft)
28/12/2011 23:20 6,8 C 95 % 1029,9 hPa 0,0 mm 8,3 km/h (2 Bft) NO 315 0 min 0 W/m 6,1 C 5,2 C 15,1 km/h (3 Bft)
28/12/2011 23:25 6,8 C 95 % 1030,0 hPa 0,0 mm 6,8 km/h (2 Bft) N-NO 337 0 min 0 W/m 6,1 C 5,6 C 9,7 km/h (2 Bft)
28/12/2011 23:30 6,6 C 95 % 1030,1 hPa 0,0 mm 7,9 km/h (2 Bft) NO 315 0 min 0 W/m 5,9 C 5,0 C 12,2 km/h (2 Bft)
28/12/2011 23:35 6,6 C 95 % 1030,3 hPa 0,0 mm 5,4 km/h (2 Bft) NO 315 0 min 0 W/m 5,9 C 5,8 C 10,4 km/h (2 Bft)
28/12/2011 23:40 6,5 C 95 % 1030,3 hPa 0,0 mm 1,8 km/h (1 Bft) NO 315 0 min 0 W/m 5,8 C 6,5 C 3,6 km/h (1 Bft)
28/12/2011 23:45 6,4 C 94 % 1030,3 hPa 0,0 mm 9,7 km/h (2 Bft) N-NO 337 0 min 0 W/m 5,5 C 4,4 C 14,8 km/h (3 Bft)
28/12/2011 23:50 6,3 C 94 % 1030,3 hPa 0,0 mm 7,9 km/h (2 Bft) NO 315 0 min 0 W/m 5,4 C 4,7 C 7,9 km/h (2 Bft)
28/12/2011 23:55 6,1 C 94 % 1030,4 hPa 0,0 mm 9,7 km/h (2 Bft) NO 315 0 min 0 W/m 5,2 C 4,0 C 15,8 km/h (3 Bft)
_ Min-Heure 01:05 08:00 18:10 - 21:35 - - - - 01:05 01:05 21:30
Minimum _ -1,6 C 88 % 1027,2 hPa - 0,0 km/h (0 Bft) - - - - -2,6 C -1,6 C 0,0 km/h (0 Bft)
_ Max-Heure 17:35 23:40 00:25 21:45 21:50 - - 23:55 23:55 17:35 17:25 22:05
Maximum _ 7,8 C 95 % 1030,8 hPa 0,1 mm 15,8 km/h
N-NO (3 Bft)
- - 0 min 0 W/m 6,7 C 7,8 C 23,0 km/h
N (4 Bft)
Moyenne _ 4,8 C 92 % 1029,0 hPa #0,9 mm 3,6 km/h (1 Bft) S-SO - #0 min. 0 W/m 3,7 C 4,3 C 6,0 km/h (2 Bft)
Saint Bonnet de Bellac- Haute Vienne - France